FW4110 Weather Reports


time (UTC)temp
C
wind
direction
speed
KPH
gust
KPH
rain 1hr
cm
rain 24hr
cm
rain mn
cm
humidity
%
barometer
mb
20200531075630 12 58 0.0 0.0 0.00 0.00 0.00 78 1024.1
20200531075054 12 58 0.0 0.0 0.00 0.00 0.00 78 1024.1
20200531074622 12 58 0.0 0.0 0.00 0.00 0.00 78 1024.0
20200531074056 12 58 0.0 0.0 0.00 0.00 0.00 78 1024.0
20200531073554 12 58 0.0 0.0 0.00 0.00 0.00 78 1024.0
20200531073155 13 58 0.0 0.0 0.00 0.00 0.00 78 1023.9
20200531072556 12 58 0.0 0.0 0.00 0.00 0.00 78 1024.0
20200531072053 12 58 0.0 0.0 0.00 0.00 0.00 79 1024.1
20200531071708 12 9 0.0 0.0 0.00 0.00 0.00 81 1024.1
20200531071049 12 9 0.0 0.0 0.00 0.00 0.00 81 1024.2
20200531070604 13 9 0.0 0.0 0.00 0.00 0.00 81 1024.2
20200531070049 13 9 0.0 0.0 0.00 0.00 0.00 81 1024.1
20200531065539 13 9 0.0 0.0 0.00 0.00 0.00 81 1024.0
20200531065039 13 9 0.0 0.0 0.00 0.00 0.00 81 1024.1
20200531064617 13 9 0.0 0.0 0.00 0.00 0.00 81 1024.0
20200531064042 13 9 0.0 0.0 0.00 0.00 0.00 81 1024.0
20200531063555 13 9 0.0 0.0 0.00 0.00 0.00 82 1024.0
20200531063112 13 9 0.0 0.0 0.00 0.00 0.00 83 1023.8
20200531062536 13 8 0.0 0.0 0.00 0.00 0.00 84 1023.9
20200531062046 13 9 0.0 0.0 0.00 0.00 0.00 84 1023.9
20200531061602 13 8 0.0 0.0 0.00 0.00 0.00 84 1023.9
20200531061029 13 9 0.0 0.0 0.00 0.00 0.00 84 1023.9
20200531060529 13 8 0.0 0.0 0.00 0.00 0.00 84 1023.9
20200531060119 13 8 0.0 0.0 0.00 0.00 0.00 84 1023.9
20200531055527 13 9 0.0 0.0 0.00 0.00 0.00 85 1023.8
20200531055031 13 9 0.0 0.0 0.00 0.00 0.00 84 1023.8
20200531054549 13 9 0.0 0.0 0.00 0.00 0.00 84 1023.8
20200531054027 13 9 0.0 0.0 0.00 0.00 0.00 84 1023.8
20200531053527 13 8 0.0 0.0 0.00 0.00 0.00 84 1023.8
20200531053050 13 9 0.0 0.0 0.00 0.00 0.00 84 1023.8
20200531052525 13 9 0.0 0.0 0.00 0.00 0.00 85 1023.9
20200531052038 13 9 0.0 0.0 0.00 0.00 0.00 85 1023.8
20200531051529 13 9 0.0 0.0 0.00 0.00 0.00 85 1023.8
20200531051016 13 8 0.0 0.0 0.00 0.00 0.00 84 1023.8
20200531050516 13 8 0.0 0.0 0.00 0.00 0.00 84 1023.8
20200531050020 13 8 0.0 0.0 0.00 0.00 0.00 84 1023.9
20200531045513 14 9 0.0 0.0 0.00 0.00 0.00 84 1023.8
20200531045013 14 9 0.0 0.0 0.00 0.00 0.00 84 1023.8
20200531044529 14 8 0.0 0.0 0.00 0.00 0.00 84 1023.9
20200531044013 14 9 0.0 0.0 0.00 0.00 0.00 84 1024.0
20200531043512 14 9 0.0 0.0 0.00 0.00 0.00 84 1023.9
20200531043025 14 8 0.0 0.0 0.00 0.00 0.00 84 1023.8
20200531042512 14 9 0.0 0.0 0.00 0.00 0.00 84 1023.8
20200531042013 14 9 0.0 0.0 0.00 0.00 0.00 84 1023.8
20200531041627 14 9 0.0 0.0 0.00 0.00 0.00 84 1023.8
20200531041005 15 9 0.0 0.0 0.00 0.00 0.00 83 1023.9
20200531040507 15 9 0.0 0.0 0.00 0.00 0.00 83 1024.0
20200531040012 15 9 0.0 0.0 0.00 0.00 0.00 83 1024.0
20200531035505 15 8 0.0 0.0 0.00 0.00 0.00 82 1024.0
20200531035005 15 9 0.0 0.0 0.00 0.00 0.00 83 1024.0
20200531034504 15 9 0.0 0.0 0.00 0.00 0.00 83 1024.0
20200531034003 15 9 0.0 0.0 0.00 0.00 0.00 83 1023.8
20200531033504 15 9 0.0 0.0 0.00 0.00 0.00 82 1023.9
20200531033014 15 9 0.0 0.0 0.00 0.00 0.00 81 1024.0
20200531032506 15 8 0.0 0.0 0.00 0.00 0.00 81 1023.9
20200531032001 15 9 0.0 0.0 0.00 0.00 0.00 81 1023.8
20200531031506 15 9 0.0 0.0 0.00 0.00 0.00 80 1023.9
20200531031104 15 9 0.0 0.0 0.00 0.00 0.00 81 1023.9
20200531030549 15 9 0.0 0.0 0.00 0.00 0.00 79 1023.7
20200531030116 16 9 0.0 0.0 0.00 0.00 0.00 80 1023.6
20200531025548 16 8 0.0 0.0 0.00 0.00 0.00 80 1023.5
20200531025049 16 9 0.0 0.0 0.00 0.00 0.00 79 1023.5
20200531024625 16 8 0.0 0.0 0.00 0.00 0.00 79 1023.4
20200531024051 16 9 0.0 0.0 0.00 0.00 0.00 80 1023.4
20200531023547 16 9 0.0 0.0 0.00 0.00 0.00 78 1023.4
20200531023159 17 9 0.0 0.0 0.00 0.00 0.00 76 1023.4
20200531022546 17 9 0.0 0.0 0.00 0.00 0.00 76 1023.3
20200531022046 17 9 0.0 0.0 0.00 0.00 0.00 76 1023.1
20200531021551 17 8 0.0 0.0 0.00 0.00 0.00 77 1023.1
20200531021043 18 9 0.0 0.0 0.00 0.00 0.00 75 1023.1
20200531020543 18 9 0.0 0.0 0.00 0.00 0.00 73 1023.0
20200531020104 18 9 0.0 0.0 0.00 0.00 0.00 70 1023.0
20200531015526 18 8 0.0 0.0 0.00 0.00 0.00 69 1023.0
20200531015026 18 351 0.0 0.0 0.00 0.00 0.00 69 1023.0
20200531014626 18 351 0.0 0.0 0.00 0.00 0.00 69 1022.9
20200531014026 19 351 0.0 3.2 0.00 0.00 0.00 68 1022.9
20200531013525 19 46 0.0 3.2 0.00 0.00 0.00 69 1022.8
20200531013037 19 6 0.0 1.6 0.00 0.00 0.00 72 1022.8
20200531012525 20 354 0.0 0.0 0.00 0.00 0.00 73 1022.8
20200531012024 20 354 0.0 0.0 0.00 0.00 0.00 68 1022.7
20200531011606 20 354 0.0 0.0 0.00 0.00 0.00 68 1022.7
20200531011018 21 354 0.0 0.0 0.00 0.00 0.00 66 1022.7
20200531010517 21 354 0.0 3.2 0.00 0.00 0.00 63 1022.7
20200531010047 21 354 0.0 3.2 0.00 0.00 0.00 62 1022.7
20200531005534 21 356 0.0 3.2 0.00 0.00 0.00 62 1022.7
20200531005016 21 356 0.0 3.2 0.00 0.00 0.00 61 1022.6
20200531004526 21 358 0.0 1.6 0.00 0.00 0.00 62 1022.5
20200531004020 21 354 0.0 1.6 0.00 0.00 0.00 62 1022.6
20200531003516 21 354 0.0 1.6 0.00 0.00 0.00 61 1022.7
20200531003020 21 29 0.0 6.4 0.00 0.00 0.00 62 1022.7
20200531002520 21 9 0.0 4.8 0.00 0.00 0.00 61 1022.7
20200531002019 22 3 0.0 1.6 0.00 0.00 0.00 61 1022.5
20200531001525 22 3 0.0 1.6 0.00 0.00 0.00 59 1022.4
20200531001006 22 7 0.0 4.8 0.00 0.00 0.00 58 1022.3
20200531000509 22 347 0.0 4.8 0.00 0.00 0.00 58 1022.4
20200531000003 22 354 1.6 3.2 0.00 0.00 0.00 58 1022.4
20200530235503 22 354 0.0 3.2 0.00 0.00 0.00 60 1022.3
20200530235002 23 323 0.0 6.4 0.00 0.00 0.00 55 1022.3
20200530234503 23 3 3.2 6.4 0.00 0.00 0.00 54 1022.2
20200530234002 23 351 1.6 6.4 0.00 0.00 0.00 55 1022.2
20200530233503 23 339 0.0 8.0 0.00 0.00 0.00 54 1022.3
20200530232601 23 319 1.6 8.0 0.00 0.00 0.00 52 1022.3
20200530232100 24 297 3.2 8.0 0.00 0.00 0.00 51 1022.1
20200530231102 24 337 6.4 14.5 0.00 0.00 0.00 50 1022.2
20200530230610 24 301 8.0 14.5 0.00 0.00 0.00 50 1022.1
20200530230154 24 4 3.2 11.3 0.00 0.00 0.00 49 1022.1
20200530225553 24 306 1.6 14.5 0.00 0.00 0.00 51 1022.1
20200530225053 24 302 6.4 16.1 0.00 0.00 0.00 51 1022.3
20200530224705 24 332 8.0 16.1 0.00 0.00 0.00 49 1022.4
20200530224057 24 337 4.8 12.9 0.00 0.00 0.00 51 1022.4
20200530223557 24 316 4.8 16.1 0.00 0.00 0.00 51 1022.5
20200530223232 24 300 8.0 16.1 0.00 0.00 0.00 50 1022.6
20200530222604 24 337 6.4 11.3 0.00 0.00 0.00 52 1022.6
20200530222103 24 27 1.6 8.0 0.00 0.00 0.00 52 1022.7
20200530221636 24 88 1.6 11.3 0.00 0.00 0.00 51 1022.7
20200530221049 24 54 3.2 12.9 0.00 0.00 0.00 53 1022.7
20200530220531 23 6 4.8 14.5 0.00 0.00 0.00 53 1022.8
20200530220123 24 319 9.7 19.3 0.00 0.00 0.00 53 1022.8
20200530215605 24 351 8.0 19.3 0.00 0.00 0.00 52 1022.9
20200530215040 24 325 4.8 12.9 0.00 0.00 0.00 53 1022.7
20200530214617 24 53 6.4 14.5 0.00 0.00 0.00 52 1022.8
20200530214059 24 350 8.0 14.5 0.00 0.00 0.00 51 1022.8
20200530213545 24 13 4.8 12.9 0.00 0.00 0.00 53 1022.9
20200530213108 24 332 6.4 14.5 0.00 0.00 0.00 53 1022.8
20200530212529 24 346 6.4 14.5 0.00 0.00 0.00 52 1022.9
20200530212029 24 21 1.6 11.3 0.00 0.00 0.00 50 1022.8
20200530211602 24 14 1.6 11.3 0.00 0.00 0.00 51 1022.7
20200530211032 24 332 6.4 11.3 0.00 0.00 0.00 50 1022.8
20200530210522 24 37 4.8 12.9 0.00 0.00 0.00 52 1022.8
20200530210029 24 72 3.2 17.7 0.00 0.00 0.00 49 1022.8
20200530205537 24 339 4.8 17.7 0.00 0.00 0.00 51 1023.0
20200530205026 24 354 3.2 11.3 0.00 0.00 0.00 51 1022.8
20200530204616 24 325 3.2 11.3 0.00 0.00 0.00 52 1022.8
20200530204019 24 342 3.2 8.0 0.00 0.00 0.00 53 1022.9
20200530203519 23 60 1.6 9.7 0.00 0.00 0.00 53 1022.8
20200530203028 23 310 4.8 12.9 0.00 0.00 0.00 51 1023.0
20200530202521 23 297 6.4 12.9 0.00 0.00 0.00 55 1023.1
20200530202024 23 324 4.8 12.9 0.00 0.00 0.00 51 1023.0
20200530201522 23 349 4.8 14.5 0.00 0.00 0.00 49 1023.0
20200530201013 23 353 8.0 14.5 0.00 0.00 0.00 51 1022.9
20200530200511 24 13 3.2 11.3 0.00 0.00 0.00 51 1023.0
20200530200015 23 20 4.8 9.7 0.00 0.00 0.00 52 1023.1
20200530195504 23 308 1.6 12.9 0.00 0.00 0.00 52 1023.2
20200530195009 23 347 4.8 16.1 0.00 0.00 0.00 56 1023.3
20200530194505 23 331 9.7 19.3 0.00 0.00 0.00 53 1023.2
20200530194002 23 355 4.8 19.3 0.00 0.00 0.00 54 1023.2
20200530193501 23 285 4.8 14.5 0.00 0.00 0.00 53 1023.3
20200530193002 23 301 8.0 16.1 0.00 0.00 0.00 53 1023.3
20200530192501 23 275 4.8 16.1 0.00 0.00 0.00 54 1023.2
20200530192106 23 301 6.4 16.1 0.00 0.00 0.00 54 1023.3
20200530191804 23 296 3.2 9.7 0.00 0.00 0.00 55 1023.4
20200530191057 23 304 3.2 12.9 0.00 0.00 0.00 60 1023.6
20200530190555 23 333 4.8 16.1 0.00 0.00 0.00 55 1023.7
20200530190127 23 300 8.0 16.1 0.00 0.00 0.00 55 1023.6
20200530185553 23 214 3.2 17.7 0.00 0.00 0.00 52 1023.5
20200530185054 23 335 6.4 17.7 0.00 0.00 0.00 54 1023.6
20200530184654 23 305 3.2 20.9 0.00 0.00 0.00 53 1023.7
20200530184056 23 331 9.7 20.9 0.00 0.00 0.00 54 1023.7
20200530183553 23 335 8.0 16.1 0.00 0.00 0.00 52 1023.7
20200530183114 23 54 4.8 16.1 0.00 0.00 0.00 52 1023.7
20200530182646 23 9 6.4 16.1 0.00 0.00 0.00 56 1023.6
20200530182050 22 348 6.4 16.1 0.00 0.00 0.00 54 1023.7
20200530181709 23 357 6.4 16.1 0.00 0.00 0.00 54 1023.8
20200530181056 23 17 3.2 19.3 0.00 0.00 0.00 53 1024.0
20200530180531 22 295 8.0 19.3 0.00 0.00 0.00 54 1023.9
20200530180130 22 35 3.2 9.7 0.00 0.00 0.00 56 1023.7
20200530175531 22 272 1.6 12.9 0.00 0.00 0.00 55 1023.7
20200530175033 22 43 6.4 14.5 0.00 0.00 0.00 54 1023.8
20200530174610 22 292 8.0 19.3 0.00 0.00 0.00 55 1023.8
20200530174029 22 292 8.0 19.3 0.00 0.00 0.00 55 1024.1
20200530173537 22 291 6.4 20.9 0.00 0.00 0.00 56 1024.2
20200530173053 22 336 11.3 20.9 0.00 0.00 0.00 54 1024.3
20200530172528 22 349 3.2 14.5 0.00 0.00 0.00 53 1024.2
20200530172027 22 360 3.2 12.9 0.00 0.00 0.00 54 1024.3
20200530171612 22 292 1.6 11.3 0.00 0.00 0.00 55 1024.1
20200530171021 22 345 4.8 14.5 0.00 0.00 0.00 55 1024.1
20200530170521 22 323 6.4 19.3 0.00 0.00 0.00 54 1024.2
20200530170039 22 345 4.8 19.3 0.00 0.00 0.00 54 1024.3
20200530165525 22 20 8.0 16.1 0.00 0.00 0.00 53 1024.2
20200530165020 22 136 1.6 4.8 0.00 0.00 0.00 55 1024.2
20200530164535 22 76 0.0 14.5 0.00 0.00 0.00 57 1024.2
20200530164025 22 289 4.8 14.5 0.00 0.00 0.00 56 1024.1
20200530163523 22 321 3.2 11.3 0.00 0.00 0.00 58 1024.1
20200530163106 21 68 3.2 11.3 0.00 0.00 0.00 57 1024.1
20200530162515 21 59 1.6 12.9 0.00 0.00 0.00 58 1024.2
20200530162015 21 298 3.2 12.9 0.00 0.00 0.00 58 1024.2
20200530161629 21 339 3.2 8.0 0.00 0.00 0.00 58 1024.1
20200530161034 21 42 0.0 11.3 0.00 0.00 0.00 62 1024.2
20200530160511 20 258 4.8 16.1 0.00 0.00 0.00 61 1024.3
20200530160024 21 306 8.0 16.1 0.00 0.00 0.00 60 1024.3
20200530155512 21 358 4.8 9.7 0.00 0.00 0.00 62 1024.3
20200530155011 20 126 1.6 8.0 0.00 0.00 0.00 59 1024.2
20200530154528 20 71 1.6 12.9 0.00 0.00 0.00 61 1024.1
20200530154006 20 9 6.4 12.9 0.00 0.00 0.00 60 1024.2
20200530153505 20 292 1.6 12.9 0.00 0.00 0.00 59 1024.0
20200530153008 21 330 4.8 12.9 0.00 0.00 0.00 57 1024.1
20200530152503 20 118 1.6 8.0 0.00 0.00 0.00 56 1024.1
20200530152014 20 66 3.2 11.3 0.00 0.00 0.00 55 1024.1
20200530151503 20 6 4.8 11.3 0.00 0.00 0.00 54 1024.1
20200530151134 20 355 6.4 11.3 0.00 0.00 0.00 54 1024.0
20200530150555 20 280 3.2 11.3 0.00 0.00 0.00 56 1024.0
20200530150203 20 359 0.0 11.3 0.00 0.00 0.00 56 1024.0
20200530145551 20 323 1.6 6.4 0.00 0.00 0.00 58 1024.0
20200530145049 20 62 0.0 6.4 0.00 0.00 0.00 58 1024.0
20200530144558 20 199 0.0 6.4 0.00 0.00 0.00 63 1024.0
20200530144048 20 108 3.2 6.4 0.00 0.00 0.00 62 1024.0
20200530143547 20 66 3.2 8.0 0.00 0.00 0.00 62 1024.0
20200530143055 20 136 3.2 9.7 0.00 0.00 0.00 62 1024.1
20200530142546 20 89 3.2 9.7 0.00 0.00 0.00 63 1024.2
20200530142048 20 274 0.0 8.0 0.00 0.00 0.00 64 1024.2
20200530141616 19 131 1.6 8.0 0.00 0.00 0.00 63 1024.2
20200530141049 19 31 0.0 3.2 0.00 0.00 0.00 61 1024.2
20200530140552 19 92 0.0 11.3 0.00 0.00 0.00 59 1024.1
20200530140042 19 53 3.2 11.3 0.00 0.00 0.00 59 1024.3
20200530135531 19 5 0.0 4.8 0.00 0.00 0.00 60 1024.5
20200530135030 18 33 1.6 3.2 0.00 0.00 0.00 61 1024.5
20200530134531 18 356 0.0 1.6 0.00 0.00 0.00 61 1024.5
20200530134028 18 60 0.0 4.8 0.00 0.00 0.00 62 1024.6
20200530133528 18 303 0.0 4.8 0.00 0.00 0.00 65 1024.6
20200530133107 17 227 0.0 1.6 0.00 0.00 0.00 65 1024.5
20200530132526 17 256 0.0 3.2 0.00 0.00 0.00 65 1024.5
20200530132035 18 328 0.0 3.2 0.00 0.00 0.00 64 1024.5
20200530131527 17 264 0.0 0.0 0.00 0.00 0.00 67 1024.4
20200530131020 16 287 0.0 0.0 0.00 0.00 0.00 67 1024.5
20200530130516 16 313 0.0 0.0 0.00 0.00 0.00 67 1024.4
20200530130029 16 272 0.0 0.0 0.00 0.00 0.00 68 1024.5
20200530125514 16 264 0.0 1.6 0.00 0.00 0.00 70 1024.2
20200530125012 16 231 0.0 1.6 0.00 0.00 0.00 70 1024.3
20200530124519 15 220 0.0 3.2 0.00 0.00 0.00 71 1024.3
20200530124009 15 200 0.0 3.2 0.00 0.00 0.00 71 1024.3
20200530123508 15 229 0.0 1.6 0.00 0.00 0.00 72 1024.3
20200530123022 15 239 0.0 0.0 0.00 0.00 0.00 74 1024.2
20200530122505 15 226 0.0 0.0 0.00 0.00 0.00 74 1024.2
20200530122004 15 218 0.0 0.0 0.00 0.00 0.00 76 1024.3
20200530121503 14 236 0.0 0.0 0.00 0.00 0.00 77 1024.3
20200530121104 14 271 0.0 0.0 0.00 0.00 0.00 79 1024.2
20200530120549 13 283 0.0 0.0 0.00 0.00 0.00 79 1024.2
20200530120238 13 284 0.0 0.0 0.00 0.00 0.00 79 1024.1
20200530115548 13 316 0.0 0.0 0.00 0.00 0.00 80 1024.0
20200530115059 13 316 0.0 0.0 0.00 0.00 0.00 81 1023.9
20200530114650 13 318 0.0 0.0 0.00 0.00 0.00 81 1023.9
20200530114109 13 318 0.0 0.0 0.00 0.00 0.00 81 1023.8
20200530113555 12 318 0.0 0.0 0.00 0.00 0.00 81 1023.7
20200530113118 12 318 0.0 0.0 0.00 0.00 0.00 82 1023.8
20200530112546 11 318 0.0 0.0 0.00 0.00 0.00 82 1023.7
20200530112045 11 318 0.0 0.0 0.00 0.00 0.00 82 1023.7
20200530111609 11 318 0.0 0.0 0.00 0.00 0.00 82 1023.5
20200530111041 11 318 0.0 0.0 0.00 0.00 0.00 83 1023.5
20200530110534 11 318 0.0 0.0 0.00 0.00 0.00 83 1023.5
20200530110141 10 318 0.0 0.0 0.00 0.00 0.00 82 1023.6
20200530105533 10 318 0.0 0.0 0.00 0.00 0.00 82 1023.5
20200530105032 10 318 0.0 0.0 0.00 0.00 0.00 82 1023.4
20200530104547 10 318 0.0 0.0 0.00 0.00 0.00 82 1023.5
20200530104035 10 318 0.0 0.0 0.00 0.00 0.00 82 1023.4
20200530103529 10 318 0.0 0.0 0.00 0.00 0.00 82 1023.4
20200530103149 10 318 0.0 0.0 0.00 0.00 0.00 82 1023.3
20200530102526 10 318 0.0 0.0 0.00 0.00 0.00 82 1023.4
20200530102025 10 318 0.0 0.0 0.00 0.00 0.00 82 1023.3
20200530101553 10 318 0.0 0.0 0.00 0.00 0.00 82 1023.3
20200530101020 10 318 0.0 0.0 0.00 0.00 0.00 82 1023.1
20200530100535 11 318 0.0 0.0 0.00 0.00 0.00 82 1023.0
20200530100058 11 318 0.0 0.0 0.00 0.00 0.00 82 1023.1
20200530095532 11 318 0.0 0.0 0.00 0.00 0.00 82 1023.1
20200530095015 11 318 0.0 0.0 0.00 0.00 0.00 82 1023.0
20200530094531 11 318 0.0 0.0 0.00 0.00 0.00 82 1023.0
20200530094013 11 318 0.0 0.0 0.00 0.00 0.00 82 1023.0
20200530093519 11 318 0.0 0.0 0.00 0.00 0.00 82 1022.9
20200530093040 11 318 0.0 0.0 0.00 0.00 0.00 82 1023.0
20200530092512 11 318 0.0 0.0 0.00 0.00 0.00 82 1023.0
20200530092012 11 318 0.0 0.0 0.00 0.00 0.00 81 1023.0
20200530090554 11 318 0.0 0.0 0.00 0.00 0.00 81 1023.1
20200530090233 11 318 0.0 0.0 0.00 0.00 0.00 81 1023.0
20200530085551 11 318 0.0 0.0 0.00 0.00 0.00 81 1023.0
20200530085051 11 318 0.0 0.0 0.00 0.00 0.00 81 1022.9
20200530084631 11 318 0.0 0.0 0.00 0.00 0.00 81 1023.0
20200530084051 11 318 0.0 0.0 0.00 0.00 0.00 81 1022.9
20200530083551 11 318 0.0 0.0 0.00 0.00 0.00 81 1022.9
20200530083203 11 318 0.0 0.0 0.00 0.00 0.00 81 1022.8
20200530082552 11 318 0.0 0.0 0.00 0.00 0.00 81 1022.7
20200530082048 11 318 0.0 0.0 0.00 0.00 0.00 81 1022.7
20200530081649 11 318 0.0 0.0 0.00 0.00 0.00 81 1022.7
20200530081044 11 318 0.0 0.0 0.00 0.00 0.00 81 1022.7
20200530080050 11 318 0.0 0.0 0.00 0.00 0.00 81 1022.6